Home   Weather   São Tomé   Past weeks
Flag for Sao Tome and Principe

Past Weather in São Tomé, Sao Tome and Principe — Yesterday and Last 2 Weeks

Now
58 °F

Cool.


Feels Like: 56 °F
Forecast: 82 / 77 °F
Wind: 10 mph from Southwest

Location: Neuchatel

Current Time: Oct 18, 2019 at 12:21:20 pm

Latest Report: Oct 18, 2019 at 11:00 am


Visibility: N/A

Pressure: 29.96 "Hg

Humidity: 84%

Dew Point: 54 °F

Location of São ToméLocation

Past Weather in São Tomé — Graph

°F

São Tomé Temperature Yesterday

Maximum temperature yesterday: 58 °F (at 12:00 pm)
Minimum temperature yesterday: 49 °F (at 1:00 am)
Average temperature yesterday: 53 °F

High & Low Weather Summary for the Past Weeks

 TemperatureHumidityPressure
High70 °F (Oct 13, 1:00 pm)98% (Oct 12, 6:00 am)30.25 "Hg (Oct 12, 6:00 am)
Low44 °F (Oct 11, 5:00 am)47% (Oct 3, 2:00 pm)29.75 "Hg (Oct 15, 5:00 am)
Average54 °F81%30.03 "Hg
* Reported Oct 3 11:00 am — Oct 18 11:00 am, São Tomé. Weather by CustomWeather, © 2019

Note: Actual official high and low records may vary slightly from our data, if they occured in-between our weather recording intervals... More about our weather records

Advertising

São Tomé Weather History for the Previous 24 Hours

Scroll right to see more
 ConditionsComfort  
Time TempWeatherWind HumidityBarometerVisibility
11:00 am
Fri, Oct 18
58 °FCool.10 mph84%29.96 "HgN/A
10:00 am57 °FCool.7 mph89%29.97 "HgN/A
9:00 am54 °FCool.1 mph93%29.99 "HgN/A
8:00 am54 °FCool.1 mph97%29.98 "HgN/A
7:00 am53 °FCool.2 mph96%29.98 "HgN/A
6:00 am53 °FCool.2 mph97%29.96 "HgN/A
5:00 am54 °FCool.2 mph97%29.97 "HgN/A
4:00 am54 °FCool.1 mph95%29.98 "HgN/A
3:00 am54 °FCool.2 mph97%29.98 "HgN/A
2:00 am56 °FCool.2 mph94%29.98 "HgN/A
1:00 am55 °FCool.1 mph96%30.00 "HgN/A
12:00 am55 °FCool.2 mph97%30.01 "HgN/A
11:00 pm
Thu, Oct 17
54 °FCool.2 mph98%30.02 "HgN/A
10:00 pm54 °FCool.2 mph98%30.03 "HgN/A
9:00 pm54 °FCool.2 mph98%30.04 "HgN/A
8:00 pm54 °FCool.No wind97%30.03 "HgN/A
7:00 pm54 °FCool.1 mph97%30.03 "HgN/A
6:00 pm54 °FCool.No wind96%30.03 "HgN/A
5:00 pm54 °FCool.2 mph96%30.02 "HgN/A
4:00 pm55 °FCool.2 mph95%30.02 "HgN/A
2:00 pm58 °FCool.1 mph72%29.98 "HgN/A
1:00 pm58 °FCool.1 mph66%29.98 "HgN/A
12:00 pm58 °FCool.2 mph63%29.99 "HgN/A
Weather by CustomWeather, © 2019

See weather overview